This is the latest recevied weather packets stored in our database for station/object W0WC. If no packets are shown the sender has not sent any weather packets the latest 10 day(s).
| Time | Temp. | Humidity | Pressure | Rain* | Wind** | Luminosity | Snow |
|---|---|---|---|---|---|---|---|
| 1777708231 | 7.78° C | 84% | 1019.4 hPa | 0 mm | - | 0 W/m² | - |
| 1777707928 | 8.33° C | 83% | 1019.4 hPa | 0 mm | - | 0 W/m² | - |
| 1777707624 | 8.33° C | 82% | 1019.4 hPa | 0 mm | - | 0 W/m² | - |
| 1777707320 | 8.33° C | 81% | 1019.4 hPa | 0 mm | - | 0 W/m² | - |
| 1777707018 | 8.33° C | 81% | 1019.4 hPa | 0 mm | - | 0 W/m² | - |
| 1777706715 | 8.33° C | 80% | 1019.3 hPa | 0 mm | - | 0 W/m² | - |
| 1777706413 | 8.33° C | 79% | 1019.2 hPa | 0 mm | - | 0 W/m² | - |
| 1777706110 | 8.33° C | 79% | 1019.1 hPa | 0 mm | - | 0 W/m² | - |
| 1777705808 | 8.89° C | 79% | 1019.1 hPa | 0 mm | - | 0 W/m² | - |
| 1777705506 | 8.89° C | 77% | 1019.1 hPa | 0 mm | - | 0 W/m² | - |
| 1777705204 | 8.89° C | 77% | 1019 hPa | 0 mm | - | 0 W/m² | - |
| 1777704902 | 9.44° C | 74% | 1019 hPa | 0 mm | - | 0 W/m² | - |
| 1777704600 | 9.44° C | 71% | 1019.1 hPa | 0 mm | - | 0 W/m² | - |
| 1777704298 | 10° C | 72% | 1018.8 hPa | 0 mm | - | 0 W/m² | - |
| 1777703995 | 10° C | 70% | 1019.1 hPa | 0 mm | - | 0 W/m² | - |
| 1777703693 | 10.56° C | 68% | 1018.9 hPa | 0 mm | - | 0 W/m² | - |
| 1777703390 | 10.56° C | 68% | 1019.1 hPa | 0 mm | - | 0 W/m² | - |
| 1777703087 | 10.56° C | 69% | 1018.9 hPa | 0 mm | - | 0 W/m² | - |
| 1777702786 | 10.56° C | 68% | 1019.3 hPa | 0 mm | - | 0 W/m² | - |
| 1777702483 | 10.56° C | 65% | 1019.1 hPa | 0 mm | - | 0 W/m² | - |
| 1777702179 | 10° C | 67% | 1019.2 hPa | 0 mm | - | 0 W/m² | - |
| 1777701874 | 10° C | 67% | 1019.3 hPa | 0 mm | - | 0 W/m² | - |
| 1777701571 | 9.44° C | 68% | 1019.2 hPa | 0 mm | - | 0 W/m² | - |
| 1777701269 | 9.44° C | 72% | 1019 hPa | 0 mm | - | 0 W/m² | - |
| 1777700969 | 9.44° C | 72% | 1019.3 hPa | 0 mm | - | 0 W/m² | - |
* Rain latest hour (hover to see other rain measurements)
** Current wind speed in m/s (hover to see current wind gust speed)